Regional Weather Roundup
Issued by NWS

Home | Current Version | Previous Version | Text Only | Print | Product List | Glossary On
Versions: 1 2 3 4 5 6 7 8 9 10 11 12 13 14 15 16 17 18 19 20 21 22 23 24 25 26 27 28 29 30 31 32 33 34 35 36 37 38 39 40 41 42 43 44 45 46 47 48 49 50
000
ASUS44 KLIX 052011
RWRLA
LOUISIANA WEATHER ROUNDUP
NATIONAL WEATHER SERVICE NEW ORLEANS LA
300 PM CDT THU MAY 05 2016

NOTE: "FAIR" INDICATES FEW OR NO CLOUDS BELOW 12,000 FEET WITH NO
      SIGNIFICANT WEATHER AND/OR OBSTRUCTIONS TO VISIBILITY.
      SKY/WX - SKY CONDITION AND SIGNIFICANT WEATHER.
      TMP - AIR TEMPERATURE.    DP   - DEWPOINT TEMPERATURE.
      RH  - RELATIVE HUMIDITY.  PRES - PRESSURE.
      HX  - HEAT INDEX.         WCI  - WIND CHILL INDEX.

*  THESE STATIONS ARE NOT NWS OR FAA STATIONS AND ARE NOT UNDER
   NWS QUALITY CONTROL.

LAZ040-048-061>063-065-066-069-052100-
SOUTHEAST LOUISIANA

CITY           SKY/WX    TMP DP  RH WIND       PRES   REMARKS
N.O. AUDUBON     N/A     82  52  35 MISG        N/A
N.O. INTL ARPT SUNNY     80  51  36 NW13      29.91F
N.O. LAKEFRONT SUNNY     76  54  46 NW13      29.91F
N.O. DOWNTOWN* FAIR      78  49  35 N5        29.91F
RESERVE*       FAIR      81  44  27 NW10G18   29.91F
SLIDELL        SUNNY     79  49  34 NW10      29.89F
BATON ROUGE    SUNNY     79  43  27 NW13G18   29.92F
BOOTHVILLE     SUNNY     77  54  44 N7        29.90F
BELLE CHASSE   SUNNY     79  48  33 W7        29.89F
BOGALUSA*      FAIR      79  42  26 NW9G17    29.92F
GALLIANO*      CLEAR     81  48  31 NW8       29.90F
NEW ROADS*     NOT AVBL
GONZALES*      FAIR      79  47  32 N13       29.91F
HAMMOND*       SUNNY     81  41  24 N9G18     29.91F
HOUMA*         SUNNY     79  48  34 NW9       29.91F
PORT FOURCHON* CLEAR     79  52  38 W9G16     29.91F

$$

LAZ041-044-053-054-052100-
SOUTHWEST LOUISIANA

CITY           SKY/WX    TMP DP  RH WIND       PRES   REMARKS
LAKE CHARLES   SUNNY     83  46  27 N10       29.96F
LAFAYETTE      SUNNY     81  47  30 NW18      29.95F
PATTERSON      NOT AVBL
SALT POINT       N/A     79  52  38 NW8       29.91F
NEW IBERIA     SUNNY     80  48  32 N14       29.95F
CHENAULT AIRPK SUNNY     81  46  30 N7        29.96F

$$

LAZ027-028-052100-
CENTRAL LOUISIANA

CITY           SKY/WX    TMP DP  RH WIND       PRES   REMARKS
FORT POLK      SUNNY     79  43  27 NW13G20   29.97F
ALEXANDRIA INT SUNNY     79  45  29 NW9       29.95F
ALEXANDRIA     SUNNY     80  45  28 VRB3      29.96F

$$

LAZ001-002-052100-
NORTHWEST LOUISIANA

CITY           SKY/WX    TMP DP  RH WIND       PRES   REMARKS
SHREVEPORT     SUNNY     79  46  31 NW10      30.00F
BARKSDALE AFB  SUNNY     77  47  35 NW13      30.00F
DTN SHREVEPORT SUNNY     76  50  40 NW12      30.00F

$$

LAZ014-016-052100-
NORTHEAST LOUISIANA

CITY           SKY/WX    TMP DP  RH WIND       PRES   REMARKS
MONROE         SUNNY     77  46  33 N9        29.98F
TALLULAH       SUNNY     76  42  29 N12G21    29.97F

$$




USA.gov is the U.S. government's official web portal to all federal, state and local government web resources and services.